CZ-4C R/B

Satellite information

Favourite Embed

Satellite Type and Status

ROCKET BODYIN ORBIT

Key statistics

Satellite CZ-4C R/B at a glance.

Uptime

1384

Days in orbit

Revolutions

≈ 14.8

Per day

Orbit

SSO

Sun Synchronous Orbit

Inclination

98.2

Latest

Satellite identification and parameters

Extended collection of information and parameters for CZ-4C R/B.

Object identification

Identified? True

Debris? False

Object name: CZ-4C R/B

International designator: 2021-109B

Object number (NORAD): 49496

Object ID (CCSDS): 49496

Country: PEOPLES REPUBLIC OF CHINA (PRC)

Current information (Y/N): Y

RCS size: LARGE

Orbital parameters

Period: 97.613 minutes

Inclination: 98.2457 deg

SMA: 7022.608 km

Apoapsis: 726.3 km

Periapsis: 562.647 km

RAAN: 310.1549 deg

Eccentricy: 0.01165187

Argument of periapsis: 346.1345 deg

Mean anomaly: 13.6671 deg

Mean motion: 14.75214242 rev/day

Mean motion (dot): 0.00001057 rev/day2

B* drag term: 0.00014830729 1/REarth

Two-line elements (TLE)

Creation date: Sept. 4, 2025, 10:13 a.m.

Reference frame: TEME

Reference center: EARTH

Epoch: Sept. 4, 2025, 4:10 a.m. UTC

TLE line 0: 0 CZ-4C R/B

TLE line 1: 1 49496U 21109B 25247.17397048 .00001057 00000-0 14831-3 0 9997

TLE line 2: 2 49496 98.2457 310.1549 0116519 346.1345 13.6671 14.75214242203361

Live tracking on map

Real-time ground track for satellite CZ-4C R/B.

In-orbit conjunctions

A list of the most updated potential collisions computed for object CZ-4C R/B.

Target Orbit TCA Probability of collision Miss distance Type
COSMOS 2251 DEB LEO 2025-01-11 19:54:06 0.0001132459 514.0 (m) DEBRIS
FENGYUN 1C DEB SSO 2024-11-14 06:43:27 0.000190959 278.0 (m) DEBRIS

Associated space launch

Gaofen (GF) is a series of Chinese civilian remote sensing satellites for the state-sponsored program China High-definition Earth Observation System (CHEOS). GF 3 features a multi-polarized C-band SAR at meter-level resolution, with designed lifespan of 8 years. The satellite is based on the CS-L3000B bus.

CZ-4C R/B was lifted into orbit during the mission ‘Long March 4C | Gaofen-3 02’, on board a Long March 4C space rocket.

The launch took place on Nov. 22, 2021, 11:45 p.m. from Launch Area 4 (SLS-2 / 603).

For more information about the launch, click the button.

Launch to space Long March 4C | Gaofen-3 02
Long March 4C | Gaofen-3 02

Agency: N/A

Status: Launch Successful

Launch date: Nov. 22, 2021, 11:45 p.m. UTC

Rocket: Long March 4C

Launch pad: Launch Area 4 (SLS-2 / 603)

Location: Jiuquan Satellite Launch Center, People's Republic of China

...

Latest news about this satellite

There are no fresh news available about this satellite. Check back as we update our databases every day.


Newsletter sign-up

Weekly statistics, charts and insights to help you stay on top of the space industry.